iso_date,epoch_date,Year,Hour,Min,DOY,POS_DOY,Lat,Lon,BP,Ts,Ta,has_bp,has_ts,has_ta,BuoyID,Buoy_Type,Buoy_Owner,Logistics,Hemisphere
2015-09-16T13:59:31Z,1442411971,2015,14,0,259.583,259.583,86.649,133.999,1010.0,-4.8,-999.0,yes,yes,no,300234062887930,SVP,AWI-USIABP,unknown,North
2015-09-16T15:00:00Z,1442415600,2015,15,0,259.625,259.625,86.6238,133.8646,1010.2,-4.5,-999.0,yes,yes,no,300234062887930,SVP,AWI-USIABP,unknown,North
2015-09-16T16:00:28Z,1442419229,2015,16,0,259.667,259.667,86.6238,133.8646,1010.7,-4.4,-999.0,yes,yes,no,300234062887930,SVP,AWI-USIABP,unknown,North
2015-09-16T16:59:31Z,1442422771,2015,17,0,259.708,259.708,86.6238,133.8646,1011.1,-4.4,-999.0,yes,yes,no,300234062887930,SVP,AWI-USIABP,unknown,North
2015-09-16T18:00:00Z,1442426400,2015,18,0,259.75,259.75,86.6168,133.8746,1011.2,-4.5,-999.0,yes,yes,no,300234062887930,SVP,AWI-USIABP,unknown,North
2015-09-16T19:00:28Z,1442430029,2015,19,0,259.792,259.792,86.6168,133.8746,1011.2,-4.6,-999.0,yes,yes,no,300234062887930,SVP,AWI-USIABP,unknown,North
2015-09-16T19:59:31Z,1442433571,2015,20,0,259.833,259.833,86.6168,133.8746,1011.1,-4.6,-999.0,yes,yes,no,300234062887930,SVP,AWI-USIABP,unknown,North
2015-09-16T21:00:00Z,1442437200,2015,21,0,259.875,259.875,86.612,133.989,1010.9,-4.5,-999.0,yes,yes,no,300234062887930,SVP,AWI-USIABP,unknown,North
2015-09-16T22:00:28Z,1442440829,2015,22,0,259.917,259.917,86.612,133.989,1010.9,-4.5,-999.0,yes,yes,no,300234062887930,SVP,AWI-USIABP,unknown,North
2015-09-16T22:59:31Z,1442444371,2015,23,0,259.958,259.958,86.612,133.989,1011.2,-4.4,-999.0,yes,yes,no,300234062887930,SVP,AWI-USIABP,unknown,North
2015-09-17T00:00:00Z,1442448000,2015,0,0,260.0,260.0,86.6082,134.1142,1011.1,-4.3,-999.0,yes,yes,no,300234062887930,SVP,AWI-USIABP,unknown,North
2015-09-17T01:00:28Z,1442451629,2015,1,0,260.042,260.042,86.6082,134.1142,1011.2,-4.2,-999.0,yes,yes,no,300234062887930,SVP,AWI-USIABP,unknown,North
2015-09-17T01:59:31Z,1442455171,2015,2,0,260.083,260.083,86.6082,134.1142,1011.2,-4.2,-999.0,yes,yes,no,300234062887930,SVP,AWI-USIABP,unknown,North
2015-09-17T03:00:00Z,1442458800,2015,3,0,260.125,260.125,86.6032,134.2562,1011.1,-4.1,-999.0,yes,yes,no,300234062887930,SVP,AWI-USIABP,unknown,North
2015-09-17T04:00:28Z,1442462429,2015,4,0,260.167,260.167,86.6032,134.2562,1011.2,-4.2,-999.0,yes,yes,no,300234062887930,SVP,AWI-USIABP,unknown,North
2015-09-17T04:59:31Z,1442465971,2015,5,0,260.208,260.208,86.6032,134.2562,1011.1,-4.2,-999.0,yes,yes,no,300234062887930,SVP,AWI-USIABP,unknown,North
2015-09-17T06:00:00Z,1442469600,2015,6,0,260.25,260.25,86.597,134.4374,1010.9,-4.3,-999.0,yes,yes,no,300234062887930,SVP,AWI-USIABP,unknown,North
2015-09-17T07:00:28Z,1442473229,2015,7,0,260.292,260.292,86.597,134.4374,1010.7,-4.3,-999.0,yes,yes,no,300234062887930,SVP,AWI-USIABP,unknown,North
2015-09-17T07:59:31Z,1442476771,2015,8,0,260.333,260.333,86.597,134.4374,1010.2,-4.5,-999.0,yes,yes,no,300234062887930,SVP,AWI-USIABP,unknown,North
2015-09-17T09:00:00Z,1442480400,2015,9,0,260.375,260.375,86.593,134.647,1009.9,-4.6,-999.0,yes,yes,no,300234062887930,SVP,AWI-USIABP,unknown,North
2015-09-17T10:00:28Z,1442484029,2015,10,0,260.417,260.417,86.593,134.647,1009.7,-4.8,-999.0,yes,yes,no,300234062887930,SVP,AWI-USIABP,unknown,North
2015-09-17T10:59:31Z,1442487571,2015,11,0,260.458,260.458,86.593,134.647,1009.2,-4.9,-999.0,yes,yes,no,300234062887930,SVP,AWI-USIABP,unknown,North
2015-09-17T12:00:00Z,1442491200,2015,12,0,260.5,260.5,86.5938,134.8422,1008.7,-5.0,-999.0,yes,yes,no,300234062887930,SVP,AWI-USIABP,unknown,North
2015-09-17T13:00:28Z,1442494829,2015,13,0,260.542,260.542,86.5938,134.8422,1008.3,-5.1,-999.0,yes,yes,no,300234062887930,SVP,AWI-USIABP,unknown,North
2015-09-17T13:59:31Z,1442498371,2015,14,0,260.583,260.583,86.5938,134.8422,1007.8,-5.0,-999.0,yes,yes,no,300234062887930,SVP,AWI-USIABP,unknown,North
2015-09-17T15:00:00Z,1442502000,2015,15,0,260.625,260.625,86.592,135.0352,1007.5,-4.9,-999.0,yes,yes,no,300234062887930,SVP,AWI-USIABP,unknown,North
2015-09-17T16:00:28Z,1442505629,2015,16,0,260.667,260.667,86.592,135.0352,1007.4,-4.7,-999.0,yes,yes,no,300234062887930,SVP,AWI-USIABP,unknown,North
2015-09-17T16:59:31Z,1442509171,2015,17,0,260.708,260.708,86.592,135.0352,1007.4,-4.4,-999.0,yes,yes,no,300234062887930,SVP,AWI-USIABP,unknown,North
2015-09-17T18:00:00Z,1442512800,2015,18,0,260.75,260.75,86.582,135.2442,1007.1,-4.2,-999.0,yes,yes,no,300234062887930,SVP,AWI-USIABP,unknown,North
2015-09-17T19:00:28Z,1442516429,2015,19,0,260.792,260.792,86.582,135.2442,1007.2,-4.0,-999.0,yes,yes,no,300234062887930,SVP,AWI-USIABP,unknown,North
2015-09-17T19:59:31Z,1442519971,2015,20,0,260.833,260.833,86.582,135.2442,1007.0,-4.0,-999.0,yes,yes,no,300234062887930,SVP,AWI-USIABP,unknown,North
2015-09-17T21:00:00Z,1442523600,2015,21,0,260.875,260.875,86.5716,135.4316,1007.1,-4.0,-999.0,yes,yes,no,300234062887930,SVP,AWI-USIABP,unknown,North
2015-09-17T22:00:28Z,1442527229,2015,22,0,260.917,260.917,86.5716,135.4316,1007.1,-3.9,-999.0,yes,yes,no,300234062887930,SVP,AWI-USIABP,unknown,North
2015-09-17T22:59:31Z,1442530771,2015,23,0,260.958,260.958,86.5716,135.4316,1007.3,-3.9,-999.0,yes,yes,no,300234062887930,SVP,AWI-USIABP,unknown,North
2015-09-18T00:00:00Z,1442534400,2015,0,0,261.0,261.0,86.566,135.5816,1007.3,-3.9,-999.0,yes,yes,no,300234062887930,SVP,AWI-USIABP,unknown,North
2015-09-18T01:00:28Z,1442538029,2015,1,0,261.042,261.042,86.566,135.5816,1007.3,-3.9,-999.0,yes,yes,no,300234062887930,SVP,AWI-USIABP,unknown,North
2015-09-18T01:59:31Z,1442541571,2015,2,0,261.083,261.083,86.566,135.5816,1007.5,-3.9,-999.0,yes,yes,no,300234062887930,SVP,AWI-USIABP,unknown,North
2015-09-18T03:00:00Z,1442545200,2015,3,0,261.125,261.125,86.5626,135.7686,1007.4,-3.8,-999.0,yes,yes,no,300234062887930,SVP,AWI-USIABP,unknown,North
2015-09-18T04:00:28Z,1442548829,2015,4,0,261.167,261.167,86.5626,135.7686,1007.3,-3.8,-999.0,yes,yes,no,300234062887930,SVP,AWI-USIABP,unknown,North
2015-09-18T04:59:31Z,1442552371,2015,5,0,261.208,261.208,86.5626,135.7686,1007.3,-3.8,-999.0,yes,yes,no,300234062887930,SVP,AWI-USIABP,unknown,North
2015-09-18T06:00:00Z,1442556000,2015,6,0,261.25,261.25,86.5606,135.9186,1007.0,-3.8,-999.0,yes,yes,no,300234062887930,SVP,AWI-USIABP,unknown,North
2015-09-18T07:00:28Z,1442559629,2015,7,0,261.292,261.292,86.5606,135.9186,1006.6,-3.8,-999.0,yes,yes,no,300234062887930,SVP,AWI-USIABP,unknown,North
2015-09-18T07:59:31Z,1442563171,2015,8,0,261.333,261.333,86.5606,135.9186,1006.4,-3.8,-999.0,yes,yes,no,300234062887930,SVP,AWI-USIABP,unknown,North
2015-09-18T09:00:00Z,1442566800,2015,9,0,261.375,261.375,86.5614,136.0102,1006.1,-3.8,-999.0,yes,yes,no,300234062887930,SVP,AWI-USIABP,unknown,North
2015-09-18T10:00:28Z,1442570429,2015,10,0,261.417,261.417,86.5614,136.0102,1005.8,-3.8,-999.0,yes,yes,no,300234062887930,SVP,AWI-USIABP,unknown,North
2015-09-18T10:59:31Z,1442573971,2015,11,0,261.458,261.458,86.5614,136.0102,1005.6,-3.7,-999.0,yes,yes,no,300234062887930,SVP,AWI-USIABP,unknown,North
2015-09-18T12:00:00Z,1442577600,2015,12,0,261.5,261.5,86.5652,136.0884,1005.1,-3.7,-999.0,yes,yes,no,300234062887930,SVP,AWI-USIABP,unknown,North
2015-09-18T13:00:28Z,1442581229,2015,13,0,261.542,261.542,86.5652,136.0884,1004.6,-3.7,-999.0,yes,yes,no,300234062887930,SVP,AWI-USIABP,unknown,North
2015-09-18T13:59:31Z,1442584771,2015,14,0,261.583,261.583,86.5652,136.0884,1004.3,-3.7,-999.0,yes,yes,no,300234062887930,SVP,AWI-USIABP,unknown,North
2015-09-18T15:00:00Z,1442588400,2015,15,0,261.625,261.625,86.5686,136.1858,1003.8,-3.7,-999.0,yes,yes,no,300234062887930,SVP,AWI-USIABP,unknown,North
2015-09-18T16:00:28Z,1442592029,2015,16,0,261.667,261.667,86.5686,136.1858,1003.1,-3.6,-999.0,yes,yes,no,300234062887930,SVP,AWI-USIABP,unknown,North
2015-09-18T16:59:31Z,1442595571,2015,17,0,261.708,261.708,86.5686,136.1858,1002.7,-3.6,-999.0,yes,yes,no,300234062887930,SVP,AWI-USIABP,unknown,North
2015-09-18T18:00:00Z,1442599200,2015,18,0,261.75,261.75,86.5678,136.23,1002.4,-3.6,-999.0,yes,yes,no,300234062887930,SVP,AWI-USIABP,unknown,North
2015-09-18T19:00:28Z,1442602829,2015,19,0,261.792,261.792,86.5678,136.23,1002.0,-3.5,-999.0,yes,yes,no,300234062887930,SVP,AWI-USIABP,unknown,North
2015-09-18T19:59:31Z,1442606371,2015,20,0,261.833,261.833,86.5678,136.23,1001.7,-3.5,-999.0,yes,yes,no,300234062887930,SVP,AWI-USIABP,unknown,North
2015-09-18T21:00:00Z,1442610000,2015,21,0,261.875,261.875,86.5642,136.133,1001.4,-3.5,-999.0,yes,yes,no,300234062887930,SVP,AWI-USIABP,unknown,North
2015-09-18T22:00:28Z,1442613629,2015,22,0,261.917,261.917,86.5642,136.133,1001.6,-3.5,-999.0,yes,yes,no,300234062887930,SVP,AWI-USIABP,unknown,North
2015-09-18T22:59:31Z,1442617171,2015,23,0,261.958,261.958,86.5642,136.133,1001.8,-3.5,-999.0,yes,yes,no,300234062887930,SVP,AWI-USIABP,unknown,North
2015-09-19T00:00:00Z,1442620800,2015,0,0,262.0,262.0,86.5608,135.8728,1001.7,-3.6,-999.0,yes,yes,no,300234062887930,SVP,AWI-USIABP,unknown,North
2015-09-19T01:00:28Z,1442624429,2015,1,0,262.042,262.042,86.5608,135.8728,1002.0,-3.7,-999.0,yes,yes,no,300234062887930,SVP,AWI-USIABP,unknown,North
2015-09-19T01:59:31Z,1442627971,2015,2,0,262.083,262.083,86.5608,135.8728,1001.9,-3.9,-999.0,yes,yes,no,300234062887930,SVP,AWI-USIABP,unknown,North
2015-09-19T03:00:00Z,1442631600,2015,3,0,262.125,262.125,86.5578,135.6264,1002.0,-4.2,-999.0,yes,yes,no,300234062887930,SVP,AWI-USIABP,unknown,North
2015-09-19T04:00:28Z,1442635229,2015,4,0,262.167,262.167,86.5578,135.6264,1001.9,-4.4,-999.0,yes,yes,no,300234062887930,SVP,AWI-USIABP,unknown,North
2015-09-19T04:59:31Z,1442638771,2015,5,0,262.208,262.208,86.5578,135.6264,1001.7,-4.5,-999.0,yes,yes,no,300234062887930,SVP,AWI-USIABP,unknown,North
2015-09-19T06:00:00Z,1442642400,2015,6,0,262.25,262.25,86.5576,135.5332,1001.3,-4.6,-999.0,yes,yes,no,300234062887930,SVP,AWI-USIABP,unknown,North
2015-09-19T07:00:28Z,1442646029,2015,7,0,262.292,262.292,86.5576,135.5332,1001.3,-4.7,-999.0,yes,yes,no,300234062887930,SVP,AWI-USIABP,unknown,North
2015-09-19T07:59:31Z,1442649571,2015,8,0,262.333,262.333,86.5576,135.5332,1001.4,-4.7,-999.0,yes,yes,no,300234062887930,SVP,AWI-USIABP,unknown,North
2015-09-19T09:00:00Z,1442653200,2015,9,0,262.375,262.375,86.5462,135.3786,1001.4,-4.7,-999.0,yes,yes,no,300234062887930,SVP,AWI-USIABP,unknown,North
2015-09-19T10:00:28Z,1442656829,2015,10,0,262.417,262.417,86.5462,135.3786,1001.3,-4.8,-999.0,yes,yes,no,300234062887930,SVP,AWI-USIABP,unknown,North
2015-09-19T10:59:31Z,1442660371,2015,11,0,262.458,262.458,86.5462,135.3786,1001.3,-4.8,-999.0,yes,yes,no,300234062887930,SVP,AWI-USIABP,unknown,North
2015-09-19T12:00:00Z,1442664000,2015,12,0,262.5,262.5,86.5314,135.0226,1001.3,-4.9,-999.0,yes,yes,no,300234062887930,SVP,AWI-USIABP,unknown,North
2015-09-19T13:00:28Z,1442667629,2015,13,0,262.542,262.542,86.5314,135.0226,1001.4,-5.0,-999.0,yes,yes,no,300234062887930,SVP,AWI-USIABP,unknown,North
2015-09-19T13:59:31Z,1442671171,2015,14,0,262.583,262.583,86.5314,135.0226,1001.0,-5.1,-999.0,yes,yes,no,300234062887930,SVP,AWI-USIABP,unknown,North
2015-09-19T15:00:00Z,1442674800,2015,15,0,262.625,262.625,86.5238,134.6286,1000.9,-5.2,-999.0,yes,yes,no,300234062887930,SVP,AWI-USIABP,unknown,North
2015-09-19T16:00:28Z,1442678429,2015,16,0,262.667,262.667,86.5238,134.6286,1000.7,-5.3,-999.0,yes,yes,no,300234062887930,SVP,AWI-USIABP,unknown,North
2015-09-19T16:59:31Z,1442681971,2015,17,0,262.708,262.708,86.5238,134.6286,1000.9,-5.3,-999.0,yes,yes,no,300234062887930,SVP,AWI-USIABP,unknown,North
2015-09-19T18:00:00Z,1442685600,2015,18,0,262.75,262.75,86.5084,134.1896,1001.1,-5.4,-999.0,yes,yes,no,300234062887930,SVP,AWI-USIABP,unknown,North
2015-09-19T19:00:28Z,1442689229,2015,19,0,262.792,262.792,86.5084,134.1896,1001.4,-5.7,-999.0,yes,yes,no,300234062887930,SVP,AWI-USIABP,unknown,North
2015-09-19T19:59:31Z,1442692771,2015,20,0,262.833,262.833,86.5084,134.1896,1001.6,-5.8,-999.0,yes,yes,no,300234062887930,SVP,AWI-USIABP,unknown,North
2015-09-19T21:00:00Z,1442696400,2015,21,0,262.875,262.875,86.4912,133.662,1002.0,-6.0,-999.0,yes,yes,no,300234062887930,SVP,AWI-USIABP,unknown,North
2015-09-19T22:00:28Z,1442700029,2015,22,0,262.917,262.917,86.4912,133.662,1002.4,-6.2,-999.0,yes,yes,no,300234062887930,SVP,AWI-USIABP,unknown,North
2015-09-19T22:59:31Z,1442703571,2015,23,0,262.958,262.958,86.4912,133.662,1002.6,-6.3,-999.0,yes,yes,no,300234062887930,SVP,AWI-USIABP,unknown,North
2015-09-20T00:00:00Z,1442707200,2015,0,0,263.0,263.0,86.4786,133.1134,1002.9,-6.4,-999.0,yes,yes,no,300234062887930,SVP,AWI-USIABP,unknown,North
2015-09-20T01:00:28Z,1442710829,2015,1,0,263.042,263.042,86.4786,133.1134,1003.2,-6.5,-999.0,yes,yes,no,300234062887930,SVP,AWI-USIABP,unknown,North
2015-09-20T01:59:31Z,1442714371,2015,2,0,263.083,263.083,86.4786,133.1134,1003.7,-6.5,-999.0,yes,yes,no,300234062887930,SVP,AWI-USIABP,unknown,North
2015-09-20T03:00:00Z,1442718000,2015,3,0,263.125,263.125,86.469,132.6534,1004.0,-6.6,-999.0,yes,yes,no,300234062887930,SVP,AWI-USIABP,unknown,North
2015-09-20T04:00:28Z,1442721629,2015,4,0,263.167,263.167,86.469,132.6534,1004.4,-6.7,-999.0,yes,yes,no,300234062887930,SVP,AWI-USIABP,unknown,North
2015-09-20T04:59:31Z,1442725171,2015,5,0,263.208,263.208,86.469,132.6534,1004.7,-6.7,-999.0,yes,yes,no,300234062887930,SVP,AWI-USIABP,unknown,North
2015-09-20T06:00:00Z,1442728800,2015,6,0,263.25,263.25,86.4576,132.2968,1005.0,-6.8,-999.0,yes,yes,no,300234062887930,SVP,AWI-USIABP,unknown,North
2015-09-20T07:00:28Z,1442732429,2015,7,0,263.292,263.292,86.4576,132.2968,1005.4,-6.8,-999.0,yes,yes,no,300234062887930,SVP,AWI-USIABP,unknown,North
2015-09-20T07:59:31Z,1442735971,2015,8,0,263.333,263.333,86.4576,132.2968,1005.7,-6.8,-999.0,yes,yes,no,300234062887930,SVP,AWI-USIABP,unknown,North
2015-09-20T09:00:00Z,1442739600,2015,9,0,263.375,263.375,86.4466,132.0104,1006.0,-6.8,-999.0,yes,yes,no,300234062887930,SVP,AWI-USIABP,unknown,North
2015-09-20T10:00:28Z,1442743229,2015,10,0,263.417,263.417,86.4466,132.0104,1006.3,-6.8,-999.0,yes,yes,no,300234062887930,SVP,AWI-USIABP,unknown,North
2015-09-20T10:59:31Z,1442746771,2015,11,0,263.458,263.458,86.4466,132.0104,1006.7,-6.8,-999.0,yes,yes,no,300234062887930,SVP,AWI-USIABP,unknown,North
2015-09-20T12:00:00Z,1442750400,2015,12,0,263.5,263.5,86.4388,131.7276,1007.1,-6.8,-999.0,yes,yes,no,300234062887930,SVP,AWI-USIABP,unknown,North
2015-09-20T13:00:28Z,1442754029,2015,13,0,263.542,263.542,86.4388,131.7276,1007.3,-6.9,-999.0,yes,yes,no,300234062887930,SVP,AWI-USIABP,unknown,North
2015-09-20T13:59:31Z,1442757571,2015,14,0,263.583,263.583,86.4388,131.7276,1007.3,-6.9,-999.0,yes,yes,no,300234062887930,SVP,AWI-USIABP,unknown,North
2015-09-20T15:00:00Z,1442761200,2015,15,0,263.625,263.625,86.4338,131.4752,1007.2,-6.9,-999.0,yes,yes,no,300234062887930,SVP,AWI-USIABP,unknown,North
2015-09-20T16:00:28Z,1442764829,2015,16,0,263.667,263.667,86.4338,131.4752,1007.3,-6.9,-999.0,yes,yes,no,300234062887930,SVP,AWI-USIABP,unknown,North
2015-09-20T16:59:31Z,1442768371,2015,17,0,263.708,263.708,86.4338,131.4752,1007.4,-6.8,-999.0,yes,yes,no,300234062887930,SVP,AWI-USIABP,unknown,North
2015-09-20T18:00:00Z,1442772000,2015,18,0,263.75,263.75,86.4268,131.2602,1007.4,-6.8,-999.0,yes,yes,no,300234062887930,SVP,AWI-USIABP,unknown,North
2015-09-20T19:00:28Z,1442775629,2015,19,0,263.792,263.792,86.4268,131.2602,1007.6,-6.7,-999.0,yes,yes,no,300234062887930,SVP,AWI-USIABP,unknown,North
2015-09-20T19:59:31Z,1442779171,2015,20,0,263.833,263.833,86.4268,131.2602,1007.7,-6.6,-999.0,yes,yes,no,300234062887930,SVP,AWI-USIABP,unknown,North
2015-09-20T21:00:00Z,1442782800,2015,21,0,263.875,263.875,86.4182,131.0484,1007.8,-6.5,-999.0,yes,yes,no,300234062887930,SVP,AWI-USIABP,unknown,North
2015-09-20T22:00:28Z,1442786429,2015,22,0,263.917,263.917,86.4182,131.0484,1007.8,-6.4,-999.0,yes,yes,no,300234062887930,SVP,AWI-USIABP,unknown,North
2015-09-20T22:59:31Z,1442789971,2015,23,0,263.958,263.958,86.4182,131.0484,1007.9,-6.3,-999.0,yes,yes,no,300234062887930,SVP,AWI-USIABP,unknown,North
2015-09-21T00:00:00Z,1442793600,2015,0,0,264.0,264.0,86.4104,130.7598,1008.0,-6.2,-999.0,yes,yes,no,300234062887930,SVP,AWI-USIABP,unknown,North
2015-09-21T01:00:28Z,1442797229,2015,1,0,264.042,264.042,86.4104,130.7598,1008.1,-6.1,-999.0,yes,yes,no,300234062887930,SVP,AWI-USIABP,unknown,North
2015-09-21T01:59:31Z,1442800771,2015,2,0,264.083,264.083,86.4104,130.7598,1008.0,-6.0,-999.0,yes,yes,no,300234062887930,SVP,AWI-USIABP,unknown,North
2015-09-21T03:00:00Z,1442804400,2015,3,0,264.125,264.125,86.4064,130.4476,1007.9,-5.9,-999.0,yes,yes,no,300234062887930,SVP,AWI-USIABP,unknown,North
2015-09-21T04:00:28Z,1442808029,2015,4,0,264.167,264.167,86.4064,130.4476,1007.9,-5.9,-999.0,yes,yes,no,300234062887930,SVP,AWI-USIABP,unknown,North
2015-09-21T04:59:31Z,1442811571,2015,5,0,264.208,264.208,86.4064,130.4476,1007.9,-5.8,-999.0,yes,yes,no,300234062887930,SVP,AWI-USIABP,unknown,North
2015-09-21T06:00:00Z,1442815200,2015,6,0,264.25,264.25,86.4042,130.244,1008.2,-5.7,-999.0,yes,yes,no,300234062887930,SVP,AWI-USIABP,unknown,North
2015-09-21T07:00:28Z,1442818829,2015,7,0,264.292,264.292,86.4042,130.244,1008.3,-5.6,-999.0,yes,yes,no,300234062887930,SVP,AWI-USIABP,unknown,North
2015-09-21T07:59:31Z,1442822371,2015,8,0,264.333,264.333,86.4042,130.244,1008.6,-5.6,-999.0,yes,yes,no,300234062887930,SVP,AWI-USIABP,unknown,North
2015-09-21T09:00:00Z,1442826000,2015,9,0,264.375,264.375,86.399,130.0806,1009.0,-5.5,-999.0,yes,yes,no,300234062887930,SVP,AWI-USIABP,unknown,North
2015-09-21T10:00:28Z,1442829629,2015,10,0,264.417,264.417,86.399,130.0806,1009.0,-5.5,-999.0,yes,yes,no,300234062887930,SVP,AWI-USIABP,unknown,North
2015-09-21T10:59:31Z,1442833171,2015,11,0,264.458,264.458,86.399,130.0806,1009.0,-5.5,-999.0,yes,yes,no,300234062887930,SVP,AWI-USIABP,unknown,North
2015-09-21T12:00:00Z,1442836800,2015,12,0,264.5,264.5,86.3914,129.845,1008.9,-5.5,-999.0,yes,yes,no,300234062887930,SVP,AWI-USIABP,unknown,North
2015-09-21T13:00:28Z,1442840429,2015,13,0,264.542,264.542,86.3914,129.845,1008.5,-5.4,-999.0,yes,yes,no,300234062887930,SVP,AWI-USIABP,unknown,North
2015-09-21T13:59:31Z,1442843971,2015,14,0,264.583,264.583,86.3914,129.845,1008.4,-5.3,-999.0,yes,yes,no,300234062887930,SVP,AWI-USIABP,unknown,North
2015-09-21T15:00:00Z,1442847600,2015,15,0,264.625,264.625,86.385,129.6034,1008.0,-5.3,-999.0,yes,yes,no,300234062887930,SVP,AWI-USIABP,unknown,North
2015-09-21T16:00:28Z,1442851229,2015,16,0,264.667,264.667,86.385,129.6034,1007.7,-5.2,-999.0,yes,yes,no,300234062887930,SVP,AWI-USIABP,unknown,North
2015-09-21T16:59:31Z,1442854771,2015,17,0,264.708,264.708,86.385,129.6034,1007.4,-5.2,-999.0,yes,yes,no,300234062887930,SVP,AWI-USIABP,unknown,North
2015-09-21T18:00:00Z,1442858400,2015,18,0,264.75,264.75,86.376,129.416,1007.1,-5.1,-999.0,yes,yes,no,300234062887930,SVP,AWI-USIABP,unknown,North
2015-09-21T19:00:28Z,1442862029,2015,19,0,264.792,264.792,86.376,129.416,1006.8,-5.0,-999.0,yes,yes,no,300234062887930,SVP,AWI-USIABP,unknown,North
2015-09-21T19:59:31Z,1442865571,2015,20,0,264.833,264.833,86.376,129.416,1006.5,-4.8,-999.0,yes,yes,no,300234062887930,SVP,AWI-USIABP,unknown,North
2015-09-21T21:00:00Z,1442869200,2015,21,0,264.875,264.875,86.3616,129.2036,1006.3,-4.7,-999.0,yes,yes,no,300234062887930,SVP,AWI-USIABP,unknown,North
2015-09-21T22:00:28Z,1442872829,2015,22,0,264.917,264.917,86.3616,129.2036,1006.1,-4.7,-999.0,yes,yes,no,300234062887930,SVP,AWI-USIABP,unknown,North
2015-09-21T22:59:31Z,1442876371,2015,23,0,264.958,264.958,86.3616,129.2036,1005.9,-4.6,-999.0,yes,yes,no,300234062887930,SVP,AWI-USIABP,unknown,North
2015-09-22T00:00:00Z,1442880000,2015,0,0,265.0,265.0,86.3448,128.8678,1005.7,-4.4,-999.0,yes,yes,no,300234062887930,SVP,AWI-USIABP,unknown,North
2015-09-22T01:00:28Z,1442883629,2015,1,0,265.042,265.042,86.3448,128.8678,1005.8,-4.3,-999.0,yes,yes,no,300234062887930,SVP,AWI-USIABP,unknown,North
2015-09-22T01:59:31Z,1442887171,2015,2,0,265.083,265.083,86.3448,128.8678,1005.9,-4.2,-999.0,yes,yes,no,300234062887930,SVP,AWI-USIABP,unknown,North
2015-09-22T03:00:00Z,1442890800,2015,3,0,265.125,265.125,86.336,128.4814,1005.8,-4.1,-999.0,yes,yes,no,300234062887930,SVP,AWI-USIABP,unknown,North
2015-09-22T04:00:28Z,1442894429,2015,4,0,265.167,265.167,86.336,128.4814,1005.9,-4.1,-999.0,yes,yes,no,300234062887930,SVP,AWI-USIABP,unknown,North
2015-09-22T04:59:31Z,1442897971,2015,5,0,265.208,265.208,86.336,128.4814,1005.9,-4.0,-999.0,yes,yes,no,300234062887930,SVP,AWI-USIABP,unknown,North
2015-09-22T06:00:00Z,1442901600,2015,6,0,265.25,265.25,86.3298,128.2362,1005.9,-4.0,-999.0,yes,yes,no,300234062887930,SVP,AWI-USIABP,unknown,North
2015-09-22T07:00:28Z,1442905229,2015,7,0,265.292,265.292,86.3298,128.2362,1006.1,-4.0,-999.0,yes,yes,no,300234062887930,SVP,AWI-USIABP,unknown,North
2015-09-22T07:59:31Z,1442908771,2015,8,0,265.333,265.333,86.3298,128.2362,1006.4,-4.0,-999.0,yes,yes,no,300234062887930,SVP,AWI-USIABP,unknown,North
2015-09-22T09:00:00Z,1442912400,2015,9,0,265.375,265.375,86.3154,128.0746,1006.6,-4.0,-999.0,yes,yes,no,300234062887930,SVP,AWI-USIABP,unknown,North
2015-09-22T10:00:28Z,1442916029,2015,10,0,265.417,265.417,86.3154,128.0746,1006.8,-4.0,-999.0,yes,yes,no,300234062887930,SVP,AWI-USIABP,unknown,North
2015-09-22T10:59:31Z,1442919571,2015,11,0,265.458,265.458,86.3154,128.0746,1007.2,-4.0,-999.0,yes,yes,no,300234062887930,SVP,AWI-USIABP,unknown,North
2015-09-22T12:00:00Z,1442923200,2015,12,0,265.5,265.5,86.2968,127.8238,1007.4,-3.9,-999.0,yes,yes,no,300234062887930,SVP,AWI-USIABP,unknown,North
2015-09-22T13:00:28Z,1442926829,2015,13,0,265.542,265.542,86.2968,127.8238,1007.8,-3.9,-999.0,yes,yes,no,300234062887930,SVP,AWI-USIABP,unknown,North
2015-09-22T13:59:31Z,1442930371,2015,14,0,265.583,265.583,86.2968,127.8238,1008.1,-3.8,-999.0,yes,yes,no,300234062887930,SVP,AWI-USIABP,unknown,North
2015-09-22T15:00:00Z,1442934000,2015,15,0,265.625,265.625,86.2904,127.5242,1008.4,-3.8,-999.0,yes,yes,no,300234062887930,SVP,AWI-USIABP,unknown,North
2015-09-22T16:00:28Z,1442937629,2015,16,0,265.667,265.667,86.2904,127.5242,1008.6,-3.7,-999.0,yes,yes,no,300234062887930,SVP,AWI-USIABP,unknown,North
2015-09-22T16:59:31Z,1442941171,2015,17,0,265.708,265.708,86.2904,127.5242,1008.8,-3.7,-999.0,yes,yes,no,300234062887930,SVP,AWI-USIABP,unknown,North
2015-09-22T18:00:00Z,1442944800,2015,18,0,265.75,265.75,86.2916,127.4642,1009.1,-3.6,-999.0,yes,yes,no,300234062887930,SVP,AWI-USIABP,unknown,North
2015-09-22T19:00:28Z,1442948429,2015,19,0,265.792,265.792,86.2916,127.4642,1009.5,-3.6,-999.0,yes,yes,no,300234062887930,SVP,AWI-USIABP,unknown,North
2015-09-22T19:59:31Z,1442951971,2015,20,0,265.833,265.833,86.2916,127.4642,1009.5,-3.5,-999.0,yes,yes,no,300234062887930,SVP,AWI-USIABP,unknown,North
2015-09-22T21:00:00Z,1442955600,2015,21,0,265.875,265.875,86.2854,127.494,1009.7,-3.5,-999.0,yes,yes,no,300234062887930,SVP,AWI-USIABP,unknown,North
2015-09-22T22:00:28Z,1442959229,2015,22,0,265.917,265.917,86.2854,127.494,1009.8,-3.5,-999.0,yes,yes,no,300234062887930,SVP,AWI-USIABP,unknown,North
2015-09-22T22:59:31Z,1442962771,2015,23,0,265.958,265.958,86.2854,127.494,1009.8,-3.4,-999.0,yes,yes,no,300234062887930,SVP,AWI-USIABP,unknown,North
2015-09-23T00:00:00Z,1442966400,2015,0,0,266.0,266.0,86.2784,127.4542,1009.7,-3.4,-999.0,yes,yes,no,300234062887930,SVP,AWI-USIABP,unknown,North
2015-09-23T01:00:28Z,1442970029,2015,1,0,266.042,266.042,86.2784,127.4542,1009.5,-3.4,-999.0,yes,yes,no,300234062887930,SVP,AWI-USIABP,unknown,North
2015-09-23T01:59:31Z,1442973571,2015,2,0,266.083,266.083,86.2784,127.4542,1009.2,-3.4,-999.0,yes,yes,no,300234062887930,SVP,AWI-USIABP,unknown,North
2015-09-23T03:00:00Z,1442977200,2015,3,0,266.125,266.125,86.28,127.4092,1008.9,-3.4,-999.0,yes,yes,no,300234062887930,SVP,AWI-USIABP,unknown,North
2015-09-23T04:00:28Z,1442980829,2015,4,0,266.167,266.167,86.28,127.4092,1008.7,-3.4,-999.0,yes,yes,no,300234062887930,SVP,AWI-USIABP,unknown,North
2015-09-23T04:59:31Z,1442984371,2015,5,0,266.208,266.208,86.28,127.4092,1008.2,-3.4,-999.0,yes,yes,no,300234062887930,SVP,AWI-USIABP,unknown,North